Tracking 25195 objects as of 21-Jan-2022
HD Live streaming from Space Station
objects crossing your sky now

STARLINK-1777

Track STARLINK-1777 now!
10-day predictions
STARLINK-1777 is classified as:


NORAD ID: 47122
Int'l Code: 2020-088A
Perigee: 552.8 km
Apogee: 556.0 km
Inclination: 53.1 °
Period: 95.6 minutes
Semi major axis: 6925 km
RCS: Unknown
Launch date: November 25, 2020
Source: United States (US)
Launch site: AIR FORCE EASTERN TEST RANGE (AFETR)
aabbcc
Your satellite tracking list
Your tracking list is empty




NASA's NSSDC Master Catalog

Two Line Element Set (TLE):
1 47122U 20088A   22020.75374090  .00000875  00000-0  77697-4 0  9995
2 47122  53.0535 235.4901 0002310  76.6894 283.4352 15.06393357 64705
Source of the keplerian elements: AFSPC